When you browse on this site, cookies collect data to enhance your experience and personalize the content and advertising you see.
Visit our Privacy Policy to learn more. By continuing to use the site, you agree to this use of cookies and data.
  • In Czech Republic
  • List of Countries
  • For 7 days
  • Water Temperature
  • Satellite Maps
  • Weather Map
  • Weather Widgets
  • user-avatar
    Login

    Hourly Weather Milford

    Today, 17 July, Wednesday

    Time Temperature Precipitation Wind Pressure Humidity
    00:00 +22°C° 0.2 mm 3 mps 751 mmHg 83%
    01:00 +22°C° 0.2 mm 3 mps 751 mmHg 87%
    02:00 +22°C° 0 mm 3 mps 751 mmHg 89%
    03:00 +23°C° 0 mm 2 mps 751 mmHg 90%
    04:00 +23°C° 0 mm 2 mps 751 mmHg 92%
    05:00 +24°C° 0 mm 2 mps 751 mmHg 89%
    06:00 +25°C° 0 mm 3 mps 751 mmHg 86%
    07:00 +26°C° 0 mm 3 mps 751 mmHg 83%
    08:00 +27°C° 0 mm 3 mps 751 mmHg 76%
    09:00 +29°C° 0 mm 3 mps 751 mmHg 69%
    10:00 +30°C° 0 mm 3 mps 751 mmHg 62%
    11:00 +30°C° 0 mm 2 mps 751 mmHg 62%
    12:00 +30°C° 0 mm 2 mps 751 mmHg 62%
    13:00 +30°C° 0 mm 2 mps 750 mmHg 63%
    14:00 +31°C° 0 mm 3 mps 750 mmHg 59%
    15:00 +33°C° 0 mm 3 mps 750 mmHg 56%
    16:00 +34°C° 0 mm 3 mps 749 mmHg 53%
    17:00 +30°C° 0.5 mm 2 mps 749 mmHg 66%
    18:00 +28°C° 0.5 mm 1 mps 749 mmHg 79%
    19:00 +25°C° 0.5 mm 1 mps 749 mmHg 91%
    20:00 +25°C° 2 mm 1 mps 749 mmHg 93%
    21:00 +24°C° 2 mm 1 mps 749 mmHg 95%
    22:00 +24°C° 2 mm 2 mps 749 mmHg 96%
    23:00 +24°C° 3.8 mm 1 mps 749 mmHg 97%

    Tomorrow, 18 July, Thursday

    Time Temperature Precipitation Wind Pressure Humidity
    00:00 +23°C° 3.8 mm 1 mps 749 mmHg 98%
    01:00 +23°C° 3.8 mm 1 mps 749 mmHg 98%
    02:00 +23°C° 2.8 mm 1 mps 749 mmHg 98%
    03:00 +23°C° 2.8 mm 2 mps 749 mmHg 98%
    04:00 +23°C° 2.8 mm 2 mps 749 mmHg 98%
    05:00 +23°C° 1.8 mm 2 mps 749 mmHg 98%
    06:00 +23°C° 1.8 mm 2 mps 750 mmHg 98%
    07:00 +23°C° 1.8 mm 2 mps 750 mmHg 98%
    08:00 +23°C° 2.3 mm 2 mps 750 mmHg 98%
    09:00 +22°C° 2.3 mm 3 mps 750 mmHg 98%
    10:00 +21°C° 2.3 mm 4 mps 751 mmHg 97%
    11:00 +21°C° 0.1 mm 3 mps 750 mmHg 96%
    12:00 +20°C° 0.1 mm 3 mps 750 mmHg 95%
    13:00 +20°C° 0.1 mm 3 mps 750 mmHg 94%
    14:00 +21°C° 0 mm 3 mps 750 mmHg 93%
    15:00 +21°C° 0 mm 3 mps 750 mmHg 91%
    16:00 +21°C° 0 mm 3 mps 750 mmHg 90%
    17:00 +21°C° 0.1 mm 2 mps 750 mmHg 91%
    18:00 +21°C° 0.1 mm 2 mps 750 mmHg 92%
    19:00 +20°C° 0.1 mm 2 mps 751 mmHg 93%
    20:00 +20°C° 0 mm 2 mps 750 mmHg 93%
    21:00 +20°C° 0 mm 2 mps 750 mmHg 93%
    22:00 +20°C° 0 mm 2 mps 750 mmHg 93%
    23:00 +20°C° 0 mm 2 mps 750 mmHg 92%

    Day after tomorrow, 19 July, Friday

    Time Temperature Precipitation Wind Pressure Humidity
    00:00 +19°C° 0 mm 2 mps 750 mmHg 92%
    01:00 +19°C° 0 mm 2 mps 750 mmHg 92%
    02:00 +19°C° 0 mm 2 mps 750 mmHg 93%
    03:00 +19°C° 0 mm 2 mps 750 mmHg 94%
    04:00 +18°C° 0 mm 2 mps 750 mmHg 94%
    05:00 +20°C° 0 mm 1 mps 750 mmHg 92%
    06:00 +21°C° 0 mm 1 mps 750 mmHg 89%
    07:00 +22°C° 0 mm 1 mps 751 mmHg 86%
    08:00 +25°C° 0 mm 1 mps 751 mmHg 79%
    09:00 +25°C° 0 mm 0 mps 750 mmHg 72%
    10:00 +28°C° 0 mm 0 mps 750 mmHg 65%
    11:00 +31°C° 0 mm 1 mps 750 mmHg 60%
    12:00 +32°C° 0 mm 1 mps 750 mmHg 54%
    13:00 +34°C° 0 mm 2 mps 750 mmHg 48%
    14:00 +35°C° 0 mm 2 mps 749 mmHg 48%
    15:00 +35°C° 0 mm 2 mps 749 mmHg 48%
    16:00 +35°C° 0 mm 2 mps 748 mmHg 48%
    17:00 +33°C° 0 mm 3 mps 748 mmHg 58%
    18:00 +30°C° 0 mm 3 mps 748 mmHg 68%
    19:00 +28°C° 0 mm 3 mps 748 mmHg 78%
    20:00 +27°C° 0 mm 3 mps 748 mmHg 80%
    21:00 +27°C° 0 mm 3 mps 748 mmHg 82%
    22:00 +26°C° 0 mm 3 mps 748 mmHg 84%
    23:00 +26°C° 0 mm 3 mps 748 mmHg 86%

    20 July, Saturday

    Time Temperature Precipitation Wind Pressure Humidity
    00:00 +25°C° 0 mm 3 mps 747 mmHg 87%
    01:00 +25°C° 0 mm 3 mps 747 mmHg 89%
    02:00 +25°C° 0 mm 3 mps 747 mmHg 91%
    03:00 +25°C° 0 mm 2 mps 747 mmHg 93%
    04:00 +25°C° 0 mm 2 mps 747 mmHg 95%
    05:00 +26°C° 0 mm 2 mps 747 mmHg 89%
    06:00 +28°C° 0 mm 3 mps 747 mmHg 82%
    07:00 +30°C° 0 mm 3 mps 747 mmHg 76%
    08:00 +33°C° 0 mm 3 mps 747 mmHg 69%
    09:00 +35°C° 0 mm 3 mps 747 mmHg 61%
    10:00 +36°C° 0 mm 4 mps 747 mmHg 54%
    11:00 +38°C° 0 mm 4 mps 746 mmHg 49%
    12:00 +40°C° 0 mm 4 mps 746 mmHg 44%
    13:00 +41°C° 0 mm 4 mps 745 mmHg 39%
    14:00 +41°C° 0 mm 4 mps 745 mmHg 38%
    15:00 +41°C° 0 mm 4 mps 745 mmHg 38%
    16:00 +41°C° 0 mm 4 mps 744 mmHg 37%
    17:00 +38°C° 0 mm 4 mps 744 mmHg 46%
    18:00 +35°C° 0 mm 3 mps 744 mmHg 54%
    19:00 +33°C° 0 mm 3 mps 744 mmHg 63%
    20:00 +30°C° 0.1 mm 3 mps 744 mmHg 68%
    21:00 +29°C° 0.1 mm 2 mps 745 mmHg 73%
    22:00 +28°C° 0.1 mm 2 mps 745 mmHg 78%
    23:00 +27°C° 0 mm 2 mps 745 mmHg 79%

    21 July, Sunday

    Time Temperature Precipitation Wind Pressure Humidity
    00:00 +27°C° 0 mm 2 mps 745 mmHg 80%
    01:00 +26°C° 0 mm 2 mps 744 mmHg 80%
    02:00 +26°C° 0 mm 2 mps 745 mmHg 81%
    03:00 +26°C° 0 mm 2 mps 745 mmHg 82%
    04:00 +26°C° 0 mm 2 mps 745 mmHg 83%
    05:00 +27°C° 0 mm 2 mps 745 mmHg 81%
    06:00 +27°C° 0 mm 3 mps 745 mmHg 78%
    07:00 +28°C° 0 mm 3 mps 746 mmHg 76%
    08:00 +30°C° 0 mm 2 mps 746 mmHg 67%
    09:00 +31°C° 0 mm 2 mps 746 mmHg 58%
    10:00 +34°C° 0 mm 2 mps 746 mmHg 50%
    11:00 +35°C° 0 mm 3 mps 746 mmHg 44%
    12:00 +36°C° 0 mm 3 mps 746 mmHg 39%
    13:00 +37°C° 0 mm 3 mps 746 mmHg 34%
    14:00 +36°C° 0 mm 3 mps 746 mmHg 32%
    15:00 +35°C° 0 mm 4 mps 746 mmHg 31%
    16:00 +35°C° 0 mm 4 mps 745 mmHg 29%
    17:00 +31°C° 0 mm 3 mps 746 mmHg 39%
    18:00 +29°C° 0 mm 3 mps 746 mmHg 49%
    19:00 +27°C° 0 mm 2 mps 746 mmHg 59%
    20:00 +26°C° 0 mm 2 mps 746 mmHg 60%
    21:00 +25°C° 0 mm 2 mps 747 mmHg 60%
    22:00 +25°C° 0 mm 2 mps 747 mmHg 61%
    23:00 +24°C° 0 mm 2 mps 747 mmHg 65%

    22 July, Monday

    Time Temperature Precipitation Wind Pressure Humidity
    00:00 +23°C° 0 mm 2 mps 747 mmHg 68%
    01:00 +21°C° 0 mm 2 mps 747 mmHg 72%
    02:00 +21°C° 0 mm 2 mps 747 mmHg 68%
    03:00 +21°C° 0 mm 2 mps 747 mmHg 63%
    04:00 +21°C° 0 mm 2 mps 747 mmHg 59%
    05:00 +23°C° 0 mm 2 mps 748 mmHg 59%
    06:00 +23°C° 0 mm 2 mps 748 mmHg 59%
    07:00 +24°C° 0 mm 2 mps 748 mmHg 59%
    08:00 +25°C° 0 mm 2 mps 748 mmHg 56%
    09:00 +26°C° 0 mm 3 mps 749 mmHg 54%
    10:00 +26°C° 0 mm 3 mps 749 mmHg 52%
    11:00 +25°C° 0 mm 2 mps 749 mmHg 58%
    12:00 +24°C° 0 mm 2 mps 749 mmHg 63%
    13:00 +24°C° 0 mm 1 mps 749 mmHg 69%
    14:00 +22°C° 1 mm 1 mps 749 mmHg 77%
    15:00 +20°C° 1 mm 1 mps 749 mmHg 84%
    16:00 +19°C° 1 mm 1 mps 749 mmHg 92%
    17:00 +19°C° 0.1 mm 1 mps 749 mmHg 92%
    18:00 +19°C° 0.1 mm 1 mps 749 mmHg 93%
    19:00 +19°C° 0.1 mm 1 mps 749 mmHg 93%
    20:00 +19°C° 0 mm 1 mps 749 mmHg 93%
    21:00 +18°C° 0 mm 1 mps 749 mmHg 93%
    22:00 +18°C° 0 mm 1 mps 750 mmHg 93%
    23:00 +18°C° 0 mm 1 mps 749 mmHg 92%
    Show more